Wind_Speed
10 2 11 17 16 16 14 13 12 11 11 11 12 13 12 9 8 9 9 8 8 9 9 9 9 10 9 8 8 7 6 3 2 2 4 9 10 13 14 14 13 15 15
9 7 7 19 17 17 15 14 13 13 13 12 12 13 12 10 8 8 8 8 8 9 8 8 8 7 7 6 6 6 3 3 3 4 7 9 11 13 14 15 10 14 14
5 10 14 19 19 17 16 15 14 14 14 14 13 15 13 10 9 8 8 7 8 8 7 8 8 7 6 6 6 5 3 4 5 8 9 7 10 11 11 10 10 14 14
2 12 15 20 22 19 17 15 14 14 14 14 14 16 14 11 10 9 9 8 7 8 8 7 8 7 7 6 7 4 4 5 9 11 13 4 8 11 9 9 10 13 13
2 10 13 23 24 19 17 16 15 14 15 15 16 16 14 11 11 10 10 9 8 8 7 6 7 7 7 7 5 4 6 7 9 9 12 8 4 10 10 10 11 11 12
2 10 11 23 23 20 18 16 14 14 14 15 15 16 15 13 12 12 10 9 9 8 8 7 6 7 6 5 4 5 6 6 8 9 10 11 5 8 11 12 13 12 11
2 10 11 14 22 21 19 17 15 14 15 15 15 15 15 14 13 13 11 10 9 9 9 8 7 7 6 5 5 5 6 7 8 6 10 5 8 8 11 12 11 12 11
3 9 11 13 19 21 19 17 16 15 15 15 15 15 15 14 14 13 12 11 10 10 10 9 9 8 7 6 6 6 8 8 4 2 6 6 6 9 11 12 12 11 11
3 7 11 13 18 23 21 19 17 16 16 16 16 15 15 15 15 15 13 13 12 11 11 10 9 9 8 7 7 7 9 10 5 7 8 10 7 9 11 13 12 13 12
12 9 14 16 17 26 24 22 20 18 17 17 16 17 16 16 17 16 15 14 14 13 13 12 11 10 10 9 8 8 8 13 9 3 4 5 5 8 11 12 13 14 12
12 11 16 17 15 25 25 24 23 21 19 18 18 18 18 19 20 19 18 16 15 15 14 13 13 12 12 11 11 10 9 12 5 5 8 7 2 5 10 13 14 14 12
10 16 13 18 16 19 24 27 25 24 23 22 21 20 20 21 21 21 20 19 18 17 16 15 14 14 14 14 13 13 11 12 7 11 9 5 7 9 11 15 16 15 11
11 10 15 14 19 22 21 23 24 28 27 27 26 24 23 22 18 18 17 19 20 20 19 18 18 17 16 15 14 15 11 13 9 9 7 8 11 11 13 14 17 17 12
9 12 13 13 14 22 26 23 25 25 30 30 29 27 27 26 23 21 20 20 21 23 22 21 21 19 18 14 11 11 8 14 10 11 12 13 14 13 13 15 17 19 14
10 7 9 12 11 14 23 25 20 21 23 24 27 28 28 27 26 27 22 23 20 20 20 22 20 20 20 19 16 18 14 13 13 13 16 13 10 13 12 14 15 19 18
9 9 10 12 11 15 19 23 29 27 23 23 23 24 28 27 27 29 26 26 23 19 19 20 21 20 18 20 21 21 20 18 17 16 14 16 12 12 12 12 14 16 19
10 11 12 10 14 14 15 20 26 28 31 24 29 25 26 30 27 28 26 30 26 21 23 22 22 23 20 23 26 24 21 22 22 20 17 17 15 14 15 17 16 16 17
10 10 7 6 7 9 14 16 21 26 27 30 26 30 36 34 34 34 33 31 28 24 27 27 24 26 24 25 23 23 23 21 21 24 22 19 18 17 16 17 19 20 18
12 14 13 12 11 15 16 17 19 23 25 29 35 30 34 35 38 34 33 37 35 29 30 29 27 30 27 27 25 22 22 23 23 21 23 22 23 21 21 19 19 23 21
17 19 19 17 17 18 19 20 24 22 27 30 31 38 32 37 35 46 35 37 39 36 33 31 32 30 30 26 26 25 27 24 22 23 21 21 21 24 24 23 22 24 25
20 21 21 22 20 19 18 16 14 18 26 29 32 32 39 35 39 36 48 39 40 45 42 34 37 33 34 29 24 27 24 26 27 25 24 22 20 21 25 30 27 26 27
20 23 24 23 23 22 19 19 24 27 27 23 32 37 38 39 40 39 39 47 47 44 46 40 39 37 36 33 32 26 20 24 29 28 26 23 21 23 23 27 27 26 27
20 23 23 24 24 24 23 24 25 33 33 32 29 28 40 40 40 42 43 42 47 48 45 49 49 44 38 37 38 27 13 17 20 30 32 30 27 27 27 27 29 29 28
23 22 23 24 26 26 24 23 22 25 30 32 29 31 30 40 42 44 46 45 43 45 46 44 44 45 43 40 39 41 32 11 16 11 21 26 25 31 31 29 31 30 28
24 25 24 26 28 27 24 25 25 28 32 34 38 35 32 27 44 46 46 47 47 46 47 51 45 41 44 44 44 43 41 38 23 16 14 23 24 23 23 22 27 27 28
26 28 28 28 27 28 29 29 29 28 32 35 38 43 41 31 31 48 47 49 48 51 50 39 41 41 42 43 42 41 44 41 44 36 26 19 25 24 22 21 21 23 24
Wind_Direction
4 285 204 191 182 173 174 179 181 179 182 185 188 185 179 172 169 162 156 156 160 164 155 156 164 172 183 190 196 194 183 222 204 140 121 126 126 117 112 111 120 122 125
320 235 248 206 194 183 179 180 179 178 181 186 193 192 183 180 177 170 163 162 163 167 167 169 177 184 183 180 176 164 157 129 114 106 119 125 124 125 125 119 135 132 131
317 241 225 214 200 190 184 181 181 181 183 187 192 193 189 188 184 179 173 169 170 177 178 174 178 187 189 184 175 162 134 121 118 117 110 125 138 137 134 135 139 134 135
14 241 224 214 204 196 188 184 183 183 184 190 194 194 192 193 191 186 182 177 179 183 177 184 185 188 183 175 168 168 141 131 132 126 116 145 158 143 141 140 145 142 141
28 244 249 210 202 197 192 188 188 187 184 186 190 195 199 201 198 192 188 186 187 190 191 189 183 182 177 174 179 168 146 143 154 146 149 153 166 154 146 145 144 146 149
357 227 263 200 201 196 197 193 191 190 187 189 190 195 201 206 204 200 195 194 195 196 196 191 188 184 184 189 190 165 153 148 168 138 162 144 178 172 156 155 160 156 151
0 229 252 212 203 198 199 196 195 193 191 193 193 198 204 209 209 205 203 202 204 204 202 195 199 196 198 201 196 174 147 166 187 291 145 134 181 177 167 164 162 161 158
99 272 247 244 220 207 201 201 199 199 199 200 199 203 208 211 211 210 211 210 212 213 209 201 199 203 206 205 196 177 159 168 109 67 280 222 197 187 176 169 167 171 166
177 240 259 254 233 213 204 203 204 204 205 203 204 207 212 214 212 213 217 218 216 216 210 208 206 210 211 210 201 184 171 177 179 193 265 237 199 193 186 179 176 179 178
328 198 266 263 234 213 206 203 205 207 208 207 207 209 214 215 215 217 221 224 225 216 213 211 213 215 216 209 203 194 184 188 196 258 270 247 174 206 194 196 189 188 191
303 314 222 252 247 214 212 207 205 207 209 208 210 209 211 214 215 217 220 225 229 226 220 217 219 218 218 213 205 200 194 177 159 296 211 247 308 280 216 205 201 198 198
294 284 291 243 237 212 214 216 211 209 210 209 210 212 210 215 219 223 222 225 220 225 228 224 222 219 218 218 212 207 202 182 165 275 286 224 284 275 239 211 207 206 207
284 293 280 283 232 210 204 229 221 217 214 212 211 213 211 214 219 224 224 228 226 221 225 226 223 220 215 220 223 223 206 176 178 254 268 266 270 274 244 223 216 216 215
298 275 283 274 284 215 206 217 234 231 220 218 215 214 211 210 208 217 213 232 232 228 227 230 229 223 217 207 230 241 236 188 180 227 240 249 266 267 243 227 226 224 229
265 297 298 293 267 251 229 220 224 222 229 229 226 220 216 212 203 211 211 225 237 231 229 233 236 232 219 192 203 233 242 203 198 235 239 234 265 256 240 237 237 230 232
307 297 284 282 289 264 245 230 226 215 207 223 224 229 224 215 206 215 211 216 230 232 235 233 234 234 224 201 215 218 224 216 213 224 241 253 253 248 233 240 243 242 242
306 295 313 276 280 265 276 253 235 234 226 223 219 213 225 214 208 222 215 207 224 222 228 232 232 239 225 219 213 224 226 226 220 220 236 245 247 247 244 249 248 239 239
323 311 292 292 266 256 254 272 259 244 231 223 229 233 223 219 207 221 218 206 206 219 222 226 235 232 226 226 228 222 226 229 228 226 221 243 247 242 245 246 246 242 237
339 329 306 296 305 289 269 262 248 258 246 230 223 230 231 233 222 215 224 217 203 203 224 228 231 229 233 223 228 227 232 231 233 238 232 229 242 246 251 247 245 242 241
336 329 313 313 297 286 270 258 250 240 248 244 241 223 236 242 237 220 215 236 214 204 207 227 227 229 231 235 229 232 228 237 234 235 235 234 236 239 249 248 240 238 237
335 324 319 310 303 297 286 274 268 285 254 247 242 234 230 240 246 236 222 223 236 216 208 218 229 229 224 229 225 227 239 238 237 238 239 237 242 246 238 249 253 252 240
332 321 316 313 310 300 284 274 260 254 238 236 243 244 236 233 239 244 233 220 231 233 217 210 222 223 221 221 215 226 232 233 236 232 235 233 244 242 247 251 253 259 251
326 322 316 308 303 301 290 278 273 257 255 250 240 240 242 234 234 234 238 234 225 234 232 220 220 222 220 219 220 209 210 224 240 241 240 232 224 234 234 247 253 260 260
326 316 309 304 297 297 294 290 281 271 264 245 246 247 248 240 234 230 230 236 230 228 233 230 227 226 218 218 219 223 221 228 211 209 230 232 232 235 238 246 254 258 260
323 320 310 305 299 284 288 286 284 281 256 252 245 257 246 250 238 235 232 230 232 225 231 231 227 225 222 219 218 220 223 224 222 233 219 220 228 236 237 242 251 256 256
323 319 314 308 303 291 273 271 274 272 271 257 247 246 247 254 248 238 235 231 233 233 232 220 235 233 227 224 220 219 226 227 234 234 236 228 223 229 243 257 252 263 259
Height
1485 1485 1487 1488 1490 1492 1494 1497 1499 1501 1504 1507 1509 1512 1514 1516 1518 1519 1520 1522 1523 1525 1527 1529 1531 1532 1533 1534 1535 1535 1536 1536 1537 1539 1540 1540 1541 1541 1541 1544 1545 1546 1548
1485 1485 1486 1488 1489 1491 1493 1496 1498 1500 1503 1505 1508 1512 1513 1516 1518 1519 1521 1523 1524 1526 1528 1529 1531 1533 1533 1534 1536 1536 1536 1536 1537 1537 1539 1540 1542 1543 1543 1545 1547 1548 1549
1484 1481 1485 1487 1489 1491 1493 1496 1498 1500 1502 1504 1507 1510 1513 1515 1518 1520 1522 1523 1525 1527 1528 1529 1531 1533 1534 1534 1536 1536 1537 1538 1538 1538 1539 1541 1542 1544 1545 1547 1549 1550 1551
1483 1479 1483 1485 1489 1491 1493 1495 1497 1500 1502 1505 1507 1510 1512 1515 1518 1520 1522 1524 1526 1528 1529 1530 1531 1533 1534 1536 1536 1537 1537 1538 1538 1538 1538 1540 1543 1545 1547 1548 1551 1552 1553
1484 1480 1482 1484 1488 1491 1493 1495 1497 1499 1501 1504 1506 1510 1513 1515 1517 1519 1522 1524 1526 1528 1529 1530 1532 1533 1535 1536 1537 1538 1537 1538 1536 1536 1537 1539 1543 1545 1547 1549 1552 1554 1555
1485 1484 1481 1483 1487 1490 1493 1495 1498 1500 1503 1505 1507 1509 1513 1515 1517 1519 1521 1523 1525 1527 1529 1531 1531 1533 1535 1536 1538 1538 1538 1538 1537 1542 1543 1538 1542 1546 1548 1550 1552 1554 1556
1485 1483 1483 1484 1486 1489 1491 1495 1498 1500 1502 1505 1507 1510 1512 1515 1517 1519 1521 1523 1525 1526 1529 1530 1532 1533 1535 1536 1538 1539 1539 1538 1538 1528 1537 1539 1542 1546 1549 1551 1553 1555 1558
1485 1484 1485 1485 1487 1488 1491 1495 1497 1500 1502 1505 1507 1510 1512 1514 1517 1519 1521 1523 1525 1526 1528 1530 1531 1533 1535 1536 1538 1539 1540 1540 1539 1539 1538 1538 1543 1546 1549 1552 1554 1556 1558
1484 1485 1483 1485 1485 1488 1490 1493 1497 1499 1502 1504 1506 1509 1511 1513 1515 1518 1520 1522 1523 1525 1527 1529 1530 1533 1534 1536 1537 1539 1540 1540 1539 1539 1540 1539 1543 1546 1549 1551 1554 1556 1558
1482 1484 1481 1482 1483 1484 1487 1490 1494 1497 1500 1502 1505 1507 1510 1512 1514 1517 1519 1521 1523 1523 1526 1527 1529 1531 1533 1534 1536 1537 1539 1539 1540 1545 1546 1549 1542 1546 1548 1551 1553 1556 1558
1480 1481 1481 1480 1480 1483 1486 1487 1490 1494 1497 1500 1503 1505 1508 1511 1513 1515 1517 1519 1522 1524 1525 1526 1528 1530 1532 1533 1534 1535 1537 1539 1540 1546 1544 1549 1542 1546 1548 1551 1553 1555 1557
1481 1476 1478 1479 1480 1481 1483 1485 1488 1489 1493 1496 1499 1503 1505 1509 1512 1513 1516 1517 1518 1522 1524 1525 1526 1528 1530 1531 1532 1534 1536 1538 1539 1541 1543 1543 1544 1546 1548 1550 1553 1555 1557
1480 1478 1475 1476 1477 1479 1481 1482 1486 1487 1489 1491 1492 1496 1501 1507 1510 1511 1513 1515 1516 1518 1521 1523 1524 1525 1527 1530 1532 1533 1536 1537 1538 1539 1541 1543 1544 1545 1547 1549 1551 1554 1556
1478 1477 1476 1474 1473 1475 1479 1482 1483 1484 1485 1487 1489 1492 1495 1498 1505 1510 1511 1511 1514 1515 1518 1521 1522 1524 1526 1528 1530 1532 1535 1536 1538 1539 1540 1542 1543 1544 1545 1548 1550 1552 1555
1477 1477 1477 1474 1473 1474 1477 1480 1482 1482 1483 1485 1487 1489 1491 1495 1497 1502 1508 1510 1511 1514 1515 1519 1521 1522 1524 1527 1528 1531 1533 1535 1537 1538 1538 1541 1541 1542 1544 1546 1548 1551 1553
1476 1477 1476 1476 1474 1474 1473 1476 1478 1480 1482 1483 1486 1486 1489 1491 1496 1497 1501 1505 1508 1510 1512 1514 1519 1519 1522 1524 1526 1527 1530 1533 1535 1536 1536 1537 1539 1540 1542 1544 1546 1548 1550
1476 1477 1475 1473 1474 1473 1471 1472 1472 1474 1480 1480 1485 1485 1485 1488 1491 1494 1497 1500 1502 1506 1508 1511 1516 1517 1520 1521 1522 1525 1528 1529 1531 1533 1534 1535 1536 1538 1539 1541 1543 1544 1546
1471 1470 1469 1468 1469 1469 1468 1469 1469 1469 1470 1474 1477 1482 1482 1483 1486 1490 1492 1494 1499 1503 1504 1506 1513 1513 1516 1519 1520 1521 1523 1526 1527 1529 1531 1532 1532 1535 1535 1537 1538 1540 1542
1468 1466 1465 1465 1466 1464 1464 1463 1465 1466 1467 1468 1471 1473 1472 1477 1481 1483 1486 1490 1493 1497 1499 1501 1503 1510 1510 1514 1517 1519 1519 1521 1523 1525 1527 1530 1529 1530 1531 1533 1534 1535 1537
1467 1467 1465 1465 1463 1461 1459 1459 1460 1461 1463 1464 1464 1466 1464 1465 1472 1477 1479 1481 1489 1489 1493 1496 1497 1504 1507 1509 1514 1515 1516 1517 1518 1520 1522 1524 1526 1527 1527 1527 1529 1530 1532
1468 1467 1466 1464 1462 1460 1457 1455 1455 1457 1458 1457 1457 1458 1458 1458 1461 1467 1472 1473 1478 1484 1485 1489 1491 1496 1502 1505 1509 1512 1513 1513 1513 1515 1517 1518 1521 1523 1524 1523 1524 1526 1527
1469 1468 1466 1464 1460 1457 1454 1451 1448 1446 1445 1446 1452 1450 1453 1454 1454 1456 1461 1465 1467 1472 1478 1480 1482 1487 1493 1499 1500 1507 1509 1510 1507 1508 1512 1514 1515 1517 1519 1518 1518 1520 1522
1468 1466 1463 1461 1456 1453 1450 1446 1444 1441 1439 1439 1441 1442 1443 1446 1448 1449 1451 1455 1459 1461 1464 1470 1473 1475 1481 1489 1493 1496 1502 1500 1502 1503 1504 1507 1510 1510 1512 1513 1513 1514 1515
1466 1462 1459 1455 1450 1447 1445 1442 1439 1436 1432 1431 1432 1434 1437 1437 1438 1441 1444 1447 1451 1452 1455 1457 1461 1467 1474 1478 1484 1487 1490 1494 1495 1496 1497 1499 1502 1503 1507 1508 1507 1508 1509
1462 1457 1452 1448 1444 1440 1437 1436 1432 1428 1426 1424 1423 1423 1425 1426 1429 1431 1437 1438 1441 1443 1444 1442 1447 1456 1462 1469 1473 1477 1481 1486 1489 1491 1493 1493 1496 1497 1498 1501 1502 1502 1503
1457 1452 1446 1441 1436 1433 1428 1425 1423 1421 1417 1415 1416 1415 1417 1418 1419 1422 1427 1428 1434 1435 1436 1416 1429 1447 1453 1458 1463 1469 1472 1476 1479 1483 1487 1488 1489 1491 1492 1493 1495 1496 1497